STARLINK-30224 (57416 NORAD) Tracking and Keplerian Element Data

This shows tracking and keplerian element data for the satellite.

Feedback or suggestion? Click here.




ElementValue
Catalog57416
NameSTARLINK-30224
Epoch Orbit2788
Epoch Day12.88509969
Epoch Year2024
RAAN203.8791
Inclination43.0026
Eccentricity0.0001257
Argument of Perigee265.8975
Mean Anonmoly94.1724
Mean Motion15.02537985
Decay Rate5.6E-07
L11 57416U 23102N 24012.88509969 .00000056 00000+0 19206-4 0 9996
L22 57416 43.0026 203.8791 0001257 265.8975 94.1724 15.02537985 27884



Live tracking and technical data element details for STARLINK-30224 (NORAD 57416). STARLINK-30224 can be tracked NOW for your location showing map with azimuth and elevation plus other details from your city location.







IsCatalogInMostPopularTable: catalog: 57416, numindb: 3
Update: records affected: 1



GetName: 57416 STARLINK-30224

Hit Count: updated at: Thu, 22 Feb 2024 01:02:25 GMT